Hettinger, ND

12:11 AM MDT on April 26, 2017 (GMT -0600)
Hettinger Municipal

Weather History for KHEI - November, 2013

Change the Weather History Date:

Wednesday, November 6, 2013

  Actual Average Record
Temperature  
Mean Temperature 30 °F -  
Max Temperature 46 °F 46 °F 73 °F (2010)
Min Temperature 13 °F 22 °F -2 °F (2003)
Degree Days  
Heating Degree Days 35 31  
Month to date heating degree days 193 180  
Since 1 July heating degree days 1144 1235  
Moisture  
Dew Point 18 °F    
Average Humidity 80    
Maximum Humidity 100    
Minimum Humidity 36    
Precipitation  
Precipitation 0.00 in 0.04 in 0.94 in (2008)
Month to date precipitation 0.02 0.23  
Year to date precipitation 24.55 15.42  
Sea Level Pressure  
Sea Level Pressure 30.13 in    
Wind  
Wind Speed 8 mph (West)    
Max Wind Speed 23 mph    
Max Gust Speed 28 mph    
Visibility 6 miles    
Events Fog    
T = Trace of Precipitation, MM = Missing Value Source: NWS Daily Summary

Daily Weather History Graph

Daily Weather History Graph

Search for Another Location

Airport or City:

Trip Planner

Search our weather history database for the weather conditions in past years. The results will help you decide how hot, cold, wet, or windy it might be!

Date:

Astronomy

Nov. 06, 2013 Rise Set
Actual Time 6:38 AM MST 4:29 PM MST
Civil Twilight 6:07 AM MST 5:00 PM MST
Nautical Twilight 5:31 AM MST 5:36 PM MST
Astronomical Twilight 4:56 AM MST 6:11 PM MST
Moon 10:00 AM MST (11/6) 7:31 PM MST (11/6)
Length of Visible Light 10h 53m
Length of Day
9h 50m
Waxing Crescent, 14% of the Moon is Illuminated
Nov 6
Waxing Crescent
Nov 9
First Quarter
Nov 17
Full
Nov 25
Last Quarter
Dec 2
New

Hourly Weather History & Observations

Time (MST) Temp. Windchill Dew Point Humidity Pressure Visibility Wind Dir Wind Speed Gust Speed Precip Events Conditions
12:00 AM 21.2 °F - 19.4 °F 93% 30.06 in 10.0 mi Calm Calm - N/A   Mostly Cloudy
12:27 AM 23.0 °F 18.4 °F 21.2 °F 93% 30.05 in 7.0 mi South 3.5 mph - N/A   Overcast
12:32 AM 23.0 °F 18.4 °F 21.2 °F 93% 30.05 in 1.5 mi South 3.5 mph - N/A   Overcast
12:53 AM 23.0 °F 14.7 °F 21.9 °F 96% 30.13 in 2.5 mi South 6.9 mph - N/A   Overcast
1:02 AM 23.0 °F 13.1 °F 21.2 °F 93% 30.04 in 1.5 mi SW 9.2 mph - N/A   Overcast
1:13 AM 23.0 °F 13.9 °F 21.2 °F 93% 30.04 in 2.0 mi SSW 8.1 mph - N/A   Overcast
1:20 AM 23.0 °F 14.7 °F 21.2 °F 93% 30.04 in 0.8 mi SW 6.9 mph - N/A   Mist
1:36 AM 23.0 °F 13.9 °F 21.2 °F 93% 30.04 in 1.0 mi SW 8.1 mph - N/A   Mist
1:53 AM 23.0 °F 17.0 °F 21.9 °F 96% 30.12 in 1.0 mi SSW 4.6 mph - N/A   Mist
2:09 AM 23.0 °F 17.0 °F 21.2 °F 93% 30.04 in 0.8 mi South 4.6 mph - N/A   Mist
2:53 AM 21.9 °F 17.2 °F 21.0 °F 96% 30.11 in 0.5 mi SSW 3.5 mph - N/A Fog Light Freezing Fog
3:53 AM 19.9 °F 14.9 °F 19.0 °F 96% 30.12 in 0.5 mi WSW 3.5 mph - N/A Fog Light Freezing Fog
4:21 AM 19.4 °F 14.3 °F 17.6 °F 93% 30.02 in 0.5 mi SW 3.5 mph - N/A Fog Light Freezing Fog
4:41 AM 19.4 °F - 17.6 °F 93% 30.02 in 0.2 mi Calm Calm - N/A Fog Light Freezing Fog
4:53 AM 18.0 °F - 15.1 °F 88% 30.13 in 0.5 mi Calm Calm - N/A Fog Light Freezing Fog
5:15 AM 15.8 °F - 12.2 °F 86% 30.01 in 1.2 mi Calm Calm - N/A   Mostly Cloudy
5:22 AM 15.8 °F - 14.0 °F 93% 30.01 in 1.2 mi Calm Calm - N/A   Scattered Clouds
5:27 AM 15.8 °F - 12.2 °F 86% 30.02 in 0.8 mi Calm Calm - N/A   Mist
5:33 AM 15.8 °F - 12.2 °F 86% 30.02 in 1.0 mi Calm Calm - N/A   Clear
5:53 AM 16.0 °F - 12.9 °F 88% 30.13 in 1.2 mi Calm Calm - N/A   Clear
5:58 AM 15.8 °F - 12.2 °F 86% 30.01 in 4.0 mi Calm Calm - N/A   Clear
6:53 AM 18.0 °F 11.1 °F 15.1 °F 88% 30.15 in 10.0 mi West 4.6 mph - N/A   Clear
7:53 AM 25.0 °F 18.1 °F 21.0 °F 85% 30.14 in 10.0 mi WNW 5.8 mph - N/A   Clear
8:53 AM 28.9 °F 21.9 °F 25.0 °F 85% 30.15 in 10.0 mi WNW 6.9 mph - N/A   Clear
9:53 AM 35.1 °F 30.1 °F 26.1 °F 70% 30.15 in 10.0 mi West 5.8 mph - N/A   Mostly Cloudy
10:53 AM 37.9 °F 32.1 °F 26.1 °F 62% 30.14 in 10.0 mi West 8.1 mph - N/A   Mostly Cloudy
11:53 AM 42.1 °F 38.4 °F 18.0 °F 38% 30.12 in 10.0 mi West 5.8 mph - N/A   Partly Cloudy
12:53 PM 45.0 °F 38.5 °F 23.0 °F 42% 30.11 in 10.0 mi West 13.8 mph 23.0 mph N/A   Clear
1:53 PM 46.0 °F 38.5 °F 21.9 °F 39% 30.12 in 10.0 mi West 19.6 mph 25.3 mph N/A   Scattered Clouds
2:53 PM 43.0 °F 34.5 °F 21.0 °F 42% 30.15 in 10.0 mi NW 19.6 mph 26.5 mph N/A   Mostly Cloudy
3:53 PM 41.0 °F 32.2 °F 19.9 °F 43% 30.18 in 10.0 mi WNW 18.4 mph - N/A   Overcast
4:53 PM 34.0 °F 26.6 °F 19.9 °F 56% 30.22 in 10.0 mi NW 9.2 mph - N/A   Partly Cloudy
5:53 PM 27.0 °F 18.7 °F 19.0 °F 72% 30.27 in 10.0 mi NW 8.1 mph - N/A   Clear
6:53 PM 27.0 °F 16.7 °F 19.0 °F 72% 30.29 in 10.0 mi NW 11.5 mph - N/A   Mostly Cloudy
7:53 PM 26.1 °F 16.8 °F 17.1 °F 69% 30.30 in 10.0 mi NW 9.2 mph - N/A   Clear
8:53 PM 17.1 °F 7.6 °F 12.9 °F 84% 30.33 in 10.0 mi WNW 6.9 mph - N/A   Clear
9:53 PM 16.0 °F 4.4 °F 12.0 °F 84% 30.35 in 10.0 mi WNW 9.2 mph - N/A   Clear
10:53 PM 15.1 °F 6.4 °F 10.9 °F 84% 30.35 in 10.0 mi WNW 5.8 mph - N/A   Clear
11:53 PM 16.0 °F 10.4 °F 10.9 °F 81% 30.35 in 10.0 mi West 3.5 mph - N/A   Clear